CW6988 Weather Reports


Display with metric or nautical units.
time (UTC)temp
F
wind
direction
speed
MPH
gust
MPH
rain 1hr
in
rain 24hr
in
rain mn
in
humidity
%
barometer
mb
20260505062026 64 90 4.0 6.0 0.00 0.00 0.00 61 1007.9
20260505061628 64 71 2.0 5.0 0.00 0.00 0.00 60 1008.0
20260505061032 65 57 2.0 5.0 0.00 0.00 0.00 59 1008.0
20260505060538 65 43 2.0 4.0 0.00 0.00 0.00 57 1008.0
20260505060201 65 5 0.0 4.0 0.00 0.00 0.00 56 1007.9
20260505055534 65 49 2.0 4.0 0.00 0.00 0.00 56 1007.9
20260505055049 66 80 3.0 7.0 0.00 0.00 0.00 55 1007.8
20260505054657 66 46 3.0 7.0 0.00 0.00 0.00 55 1007.8
20260505054024 66 38 4.0 9.0 0.00 0.00 0.00 54 1007.8
20260505053520 66 56 5.0 9.0 0.00 0.00 0.00 54 1007.7
20260505053124 68 72 5.0 8.0 0.00 0.00 0.00 52 1007.8
20260505052529 68 22 3.0 5.0 0.00 0.00 0.00 50 1007.7
20260505052038 68 352 2.0 4.0 0.00 0.00 0.00 49 1007.8
20260505051706 68 333 2.0 4.0 0.00 0.00 0.00 48 1007.7
20260505051042 68 298 0.0 7.0 0.00 0.00 0.00 50 1007.8
20260505050539 67 298 3.0 7.0 0.00 0.00 0.00 51 1007.8
20260505050208 67 324 2.0 6.0 0.00 0.00 0.00 51 1007.7
20260505041658 71 62 3.0 12.0 0.00 0.00 0.00 45 1007.2
20260505041028 72 75 7.0 12.0 0.00 0.00 0.00 43 1007.2
20260505040526 72 14 4.0 9.0 0.00 0.00 0.00 38 1007.0
20260505040204 72 16 4.0 9.0 0.00 0.00 0.00 39 1007.1
20260505035543 71 36 3.0 6.0 0.00 0.00 0.00 39 1007.0
20260505035041 71 13 3.0 5.0 0.00 0.00 0.00 41 1006.8
20260505034643 71 5 0.0 0.0 0.00 0.00 0.00 42 1006.8
20260505034042 71 38 0.0 0.0 0.00 0.00 0.00 42 1006.8
20260505033524 71 51 0.0 0.0 0.00 0.00 0.00 42 1006.7
20260505033150 72 65 0.0 1.0 0.00 0.00 0.00 42 1006.7
20260505032541 73 65 0.0 1.0 0.00 0.00 0.00 41 1006.7
20260505032024 75 349 0.0 5.0 0.00 0.00 0.00 39 1006.7
20260505031650 77 338 1.0 5.0 0.00 0.00 0.00 35 1006.6
20260505031042 77 341 2.0 6.0 0.00 0.00 0.00 34 1006.6
20260505030522 76 337 3.0 6.0 0.00 0.00 0.00 34 1006.6
20260505030150 77 352 4.0 6.0 0.00 0.00 0.00 36 1006.6
20260505025530 77 360 2.0 4.0 0.00 0.00 0.00 38 1006.5
20260505025020 78 348 0.0 3.0 0.00 0.00 0.00 37 1006.3
20260505024625 79 347 2.0 4.0 0.00 0.00 0.00 33 1006.4
20260505024032 79 337 2.0 4.0 0.00 0.00 0.00 32 1006.5
20260505023522 80 346 2.0 4.0 0.00 0.00 0.00 32 1006.6
20260505023128 81 352 2.0 3.0 0.00 0.00 0.00 32 1006.6
20260505022520 82 14 1.0 3.0 0.00 0.00 0.00 31 1006.6
20260505022022 83 5 2.0 3.0 0.00 0.00 0.00 29 1006.6
20260505021659 84 18 1.0 4.0 0.00 0.00 0.00 26 1006.7
20260505021034 85 18 2.0 6.0 0.00 0.00 0.00 26 1006.7
20260505020534 86 13 3.0 9.0 0.00 0.00 0.00 24 1006.7
20260505020135 86 11 5.0 9.0 0.00 0.00 0.00 21 1006.8
20260505015521 87 24 6.0 9.0 0.00 0.00 0.00 21 1006.7
20260505015037 87 15 5.0 8.0 0.00 0.00 0.00 21 1006.8
20260505014650 87 11 5.0 8.0 0.00 0.00 0.00 22 1006.8
20260505014037 88 28 5.0 8.0 0.00 0.00 0.00 20 1006.9
20260505013527 88 10 2.0 9.0 0.00 0.00 0.00 20 1007.0
20260505013131 88 28 5.0 9.0 0.00 0.00 0.00 19 1007.1
20260505012526 88 17 5.0 12.0 0.00 0.00 0.00 19 1007.1
20260505012041 88 352 9.0 13.0 0.00 0.00 0.00 19 1007.1
20260505011610 88 9 10.0 16.0 0.00 0.00 0.00 19 1007.2
20260505011021 89 30 6.0 13.0 0.00 0.00 0.00 19 1007.2
20260505010525 89 12 8.0 12.0 0.00 0.00 0.00 19 1007.3
20260505010151 89 26 4.0 10.0 0.00 0.00 0.00 18 1007.2
20260505005520 89 360 7.0 12.0 0.00 0.00 0.00 18 1007.3
20260505005031 89 360 6.0 14.0 0.00 0.00 0.00 18 1007.4
20260505004643 89 348 9.0 14.0 0.00 0.00 0.00 18 1007.3
20260505004034 89 20 5.0 11.0 0.00 0.00 0.00 19 1007.3
20260505003538 89 336 6.0 12.0 0.00 0.00 0.00 18 1007.4
20260505003142 89 316 9.0 12.0 0.00 0.00 0.00 18 1007.4
20260505002526 89 344 5.0 12.0 0.00 0.00 0.00 17 1007.3
20260505002030 89 23 6.0 12.0 0.00 0.00 0.00 18 1007.5
20260505001638 89 352 6.0 14.0 0.00 0.00 0.00 20 1007.4
20260505001026 89 326 11.0 14.0 0.00 0.00 0.00 22 1007.3
20260505000527 89 325 10.0 15.0 0.00 0.00 0.00 19 1007.3
20260505000153 89 324 12.0 16.0 0.00 0.00 0.00 19 1007.4
20260504235522 89 337 10.0 16.0 0.00 0.00 0.00 18 1007.5
20260504235019 89 340 11.0 16.0 0.00 0.00 0.00 18 1007.4
20260504234638 89 320 10.0 18.0 0.00 0.00 0.00 17 1007.4
20260504234019 90 344 12.0 18.0 0.00 0.00 0.00 18 1007.6
20260504233515 90 340 11.0 16.0 0.00 0.00 0.00 17 1007.4
20260504233111 90 322 8.0 14.0 0.00 0.00 0.00 18 1007.4
20260504232523 90 328 8.0 15.0 0.00 0.00 0.00 16 1007.6
20260504232030 90 321 9.0 15.0 0.00 0.00 0.00 18 1007.6
20260504231643 89 291 7.0 13.0 0.00 0.00 0.00 17 1007.6
20260504231027 89 20 7.0 14.0 0.00 0.00 0.00 17 1007.7
20260504230521 89 347 10.0 16.0 0.00 0.00 0.00 16 1007.6
20260504230152 89 344 13.0 16.0 0.00 0.00 0.00 17 1007.7
20260504225542 90 319 12.0 16.0 0.00 0.00 0.00 17 1007.8
20260504225033 90 344 10.0 17.0 0.00 0.00 0.00 17 1007.7
20260504224636 90 352 12.0 21.0 0.00 0.00 0.00 17 1007.8
20260504224031 90 349 14.0 21.0 0.00 0.00 0.00 17 1007.8
20260504223522 90 23 10.0 16.0 0.00 0.00 0.00 17 1007.8
20260504223140 90 360 9.0 17.0 0.00 0.00 0.00 18 1007.8
20260504222528 90 352 7.0 13.0 0.00 0.00 0.00 17 1007.8
20260504222019 90 329 3.0 14.0 0.00 0.00 0.00 17 1007.9
20260504221650 90 352 5.0 14.0 0.00 0.00 0.00 18 1008.0
20260504221043 90 17 4.0 14.0 0.00 0.00 0.00 19 1008.0
20260504220522 90 344 9.0 14.0 0.00 0.00 0.00 18 1008.1
20260504220211 90 343 3.0 11.0 0.00 0.00 0.00 18 1008.1
20260504215534 90 279 5.0 11.0 0.00 0.00 0.00 19 1008.2
20260504215027 90 22 4.0 9.0 0.00 0.00 0.00 20 1008.1
20260504214658 90 18 0.0 9.0 0.00 0.00 0.00 19 1008.2
20260504214035 90 33 0.0 10.0 0.00 0.00 0.00 18 1008.2
20260504213544 90 292 5.0 11.0 0.00 0.00 0.00 18 1008.3
20260504213157 90 333 3.0 12.0 0.00 0.00 0.00 19 1008.4
20260504212531 90 330 5.0 12.0 0.00 0.00 0.00 19 1008.4
20260504212040 89 340 1.0 12.0 0.00 0.00 0.00 19 1008.4
20260504211647 89 343 1.0 10.0 0.00 0.00 0.00 20 1008.3
20260504211019 89 51 2.0 10.0 0.00 0.00 0.00 20 1008.5
20260504210530 89 343 0.0 6.0 0.00 0.00 0.00 20 1008.6
20260504210158 89 309 1.0 9.0 0.00 0.00 0.00 21 1008.7
20260504205543 88 317 3.0 9.0 0.00 0.00 0.00 21 1008.8
20260504205024 87 279 0.0 2.0 0.00 0.00 0.00 26 1009.0
20260504204657 87 105 0.0 4.0 0.00 0.00 0.00 28 1009.0
20260504204035 86 296 0.0 6.0 0.00 0.00 0.00 25 1009.0
20260504203520 86 49 2.0 8.0 0.00 0.00 0.00 28 1009.1
20260504203201 86 120 3.0 9.0 0.00 0.00 0.00 26 1009.2
20260504202531 86 90 4.0 12.0 0.00 0.00 0.00 31 1009.2
20260504202042 86 106 3.0 12.0 0.00 0.00 0.00 27 1009.3
20260504201612 86 90 4.0 10.0 0.00 0.00 0.00 27 1009.3
20260504201026 86 94 1.0 7.0 0.00 0.00 0.00 25 1009.3
20260504200528 86 62 3.0 10.0 0.00 0.00 0.00 26 1009.4
20260504200203 86 86 5.0 10.0 0.00 0.00 0.00 26 1009.5
20260504195522 86 43 1.0 14.0 0.00 0.00 0.00 23 1009.4
20260504195038 85 15 5.0 15.0 0.00 0.00 0.00 24 1009.5
20260504194707 86 10 9.0 15.0 0.00 0.00 0.00 22 1009.6
20260504194034 86 22 9.0 14.0 0.00 0.00 0.00 24 1009.6
20260504193521 85 350 7.0 14.0 0.00 0.00 0.00 24 1009.7
20260504193203 85 323 9.0 12.0 0.00 0.00 0.00 25 1009.7
20260504192528 85 342 5.0 12.0 0.00 0.00 0.00 26 1009.8
20260504192021 85 352 6.0 15.0 0.00 0.00 0.00 27 1009.8
20260504191650 84 11 5.0 15.0 0.00 0.00 0.00 26 1009.9
20260504191036 84 271 3.0 9.0 0.00 0.00 0.00 28 1010.0
20260504190529 83 337 2.0 11.0 0.00 0.00 0.00 28 1010.1
20260504190227 83 352 6.0 11.0 0.00 0.00 0.00 29 1010.1
20260504185540 83 5 4.0 13.0 0.00 0.00 0.00 29 1010.0
20260504185034 83 343 9.0 13.0 0.00 0.00 0.00 28 1010.2
20260504184642 82 31 8.0 13.0 0.00 0.00 0.00 29 1010.2
20260504184035 82 5 6.0 13.0 0.00 0.00 0.00 29 1010.3
20260504183528 82 351 8.0 14.0 0.00 0.00 0.00 29 1010.2
20260504183200 82 10 8.0 13.0 0.00 0.00 0.00 28 1010.2
20260504182521 81 9 6.0 13.0 0.00 0.00 0.00 29 1010.2
20260504182022 81 5 6.0 13.0 0.00 0.00 0.00 28 1010.3
20260504181712 81 344 6.0 13.0 0.00 0.00 0.00 29 1010.2
20260504181021 81 9 3.0 11.0 0.00 0.00 0.00 30 1010.2
20260504180528 80 334 8.0 11.0 0.00 0.00 0.00 29 1010.3
20260504180232 80 17 8.0 14.0 0.00 0.00 0.00 29 1010.2
20260504175537 80 352 10.0 16.0 0.00 0.00 0.00 29 1010.3
20260504175021 80 30 8.0 16.0 0.00 0.00 0.00 29 1010.2
20260504174711 79 46 4.0 11.0 0.00 0.00 0.00 34 1010.1
20260504174044 79 360 4.0 11.0 0.00 0.00 0.00 33 1010.2
20260504173516 78 311 5.0 10.0 0.00 0.00 0.00 33 1010.1
20260504173157 77 284 4.0 10.0 0.00 0.00 0.00 34 1010.3
20260504172543 77 274 5.0 8.0 0.00 0.00 0.00 34 1010.3
20260504172022 77 280 5.0 8.0 0.00 0.00 0.00 34 1010.4
20260504171711 77 269 4.0 8.0 0.00 0.00 0.00 34 1010.5
20260504171023 76 300 4.0 6.0 0.00 0.00 0.00 36 1010.4
20260504170531 76 263 3.0 5.0 0.00 0.00 0.00 36 1010.4
20260504170236 76 284 0.0 5.0 0.00 0.00 0.00 40 1010.5
20260504160211 67 178 0.0 0.0 0.00 0.00 0.00 57 1010.5
20260504151038 62 106 1.0 2.0 0.00 0.00 0.00 64 1010.3
20260504150529 61 48 0.0 3.0 0.00 0.00 0.00 66 1010.2
20260504150229 60 52 0.0 3.0 0.00 0.00 0.00 66 1010.2
20260504141027 55 70 0.0 0.0 0.00 0.00 0.00 76 1010.1
20260504140539 55 70 0.0 4.0 0.00 0.00 0.00 77 1010.0
20260504140229 54 69 2.0 5.0 0.00 0.00 0.00 77 1010.0
20260504130530 50 65 5.0 8.0 0.00 0.00 0.00 81 1009.5
20260504130230 50 61 5.0 7.0 0.00 0.00 0.00 81 1009.5
20260504120314 50 71 6.0 10.0 0.00 0.00 0.00 81 1009.2
20260504110521 51 44 2.0 6.0 0.00 0.00 0.00 82 1009.3
20260504110142 51 61 3.0 8.0 0.00 0.00 0.00 82 1009.3
20260504100528 53 50 6.0 9.0 0.00 0.00 0.00 77 1009.4
20260504100143 52 69 6.0 7.0 0.00 0.00 0.00 78 1009.3
20260504090139 56 63 5.0 6.0 0.00 0.00 0.00 68 1009.3
20260504081606 58 177 0.0 0.0 0.00 0.00 0.00 61 1009.1
20260504081028 58 177 0.0 2.0 0.00 0.00 0.00 61 1009.2
20260504080540 58 192 0.0 3.0 0.00 0.00 0.00 60 1009.2
20260504080123 58 215 1.0 4.0 0.00 0.00 0.00 62 1009.3
20260504070150 60 71 1.0 4.0 0.00 0.00 0.00 61 1009.4